When you browse on this site, cookies collect data to enhance your experience and personalize the content and advertising you see.
Visit our Privacy Policy to learn more. By continuing to use the site, you agree to this use of cookies and data.

Hourly Weather Townsville

Today, 16 July, Thursday

Time Temperature Precipitation Wind Pressure Humidity
00:00 +14°C° 0 mm 2 mps 756 mmHg 58%
01:00 +13°C° 0 mm 2 mps 756 mmHg 57%
02:00 +13°C° 0 mm 2 mps 756 mmHg 56%
03:00 +13°C° 0 mm 2 mps 756 mmHg 54%
04:00 +13°C° 0 mm 2 mps 756 mmHg 54%
05:00 +13°C° 0 mm 2 mps 756 mmHg 52%
06:00 +12°C° 0 mm 2 mps 756 mmHg 50%
07:00 +12°C° 0 mm 2 mps 756 mmHg 48%
08:00 +15°C° 0 mm 2 mps 756 mmHg 42%
09:00 +18°C° 0 mm 2 mps 757 mmHg 36%
10:00 +21°C° 0 mm 2 mps 757 mmHg 29%
11:00 +22°C° 0 mm 3 mps 756 mmHg 29%
12:00 +24°C° 0 mm 3 mps 756 mmHg 28%
13:00 +25°C° 0 mm 3 mps 755 mmHg 27%
14:00 +24°C° 0 mm 3 mps 755 mmHg 30%
15:00 +24°C° 0 mm 3 mps 754 mmHg 34%
16:00 +23°C° 0 mm 2 mps 754 mmHg 38%
17:00 +20°C° 0 mm 2 mps 754 mmHg 45%
18:00 +19°C° 0 mm 1 mps 754 mmHg 53%
19:00 +16°C° 0 mm 1 mps 755 mmHg 60%
20:00 +15°C° 0 mm 1 mps 755 mmHg 61%
21:00 +15°C° 0 mm 1 mps 755 mmHg 62%
22:00 +14°C° 0 mm 1 mps 755 mmHg 64%
23:00 +14°C° 0 mm 1 mps 755 mmHg 64%

Tomorrow, 17 July, Friday

Time Temperature Precipitation Wind Pressure Humidity
00:00 +14°C° 0 mm 1 mps 755 mmHg 64%
01:00 +14°C° 0 mm 1 mps 755 mmHg 65%
02:00 +14°C° 0 mm 2 mps 755 mmHg 65%
03:00 +14°C° 0 mm 2 mps 755 mmHg 66%
04:00 +13°C° 0 mm 2 mps 755 mmHg 67%
05:00 +13°C° 0 mm 2 mps 755 mmHg 68%
06:00 +13°C° 0 mm 2 mps 755 mmHg 69%
07:00 +13°C° 0 mm 2 mps 755 mmHg 70%
08:00 +16°C° 0 mm 2 mps 756 mmHg 61%
09:00 +18°C° 0 mm 2 mps 756 mmHg 52%
10:00 +21°C° 0 mm 2 mps 756 mmHg 44%
11:00 +23°C° 0 mm 2 mps 755 mmHg 40%
12:00 +24°C° 0 mm 2 mps 755 mmHg 37%
13:00 +25°C° 0 mm 3 mps 754 mmHg 33%
14:00 +24°C° 0 mm 3 mps 754 mmHg 36%
15:00 +24°C° 0 mm 3 mps 753 mmHg 38%
16:00 +22°C° 0 mm 3 mps 753 mmHg 41%
17:00 +20°C° 0 mm 2 mps 754 mmHg 50%
18:00 +18°C° 0 mm 2 mps 754 mmHg 59%
19:00 +16°C° 0 mm 1 mps 755 mmHg 68%
20:00 +15°C° 0 mm 1 mps 755 mmHg 70%
21:00 +15°C° 0 mm 1 mps 755 mmHg 71%
22:00 +14°C° 0 mm 1 mps 756 mmHg 72%
23:00 +14°C° 0 mm 1 mps 756 mmHg 74%

Day after tomorrow, 18 July, Saturday

Time Temperature Precipitation Wind Pressure Humidity
00:00 +14°C° 0 mm 2 mps 755 mmHg 76%
01:00 +14°C° 0 mm 2 mps 755 mmHg 78%
02:00 +13°C° 0 mm 2 mps 755 mmHg 79%
03:00 +13°C° 0 mm 2 mps 755 mmHg 79%
04:00 +13°C° 0 mm 2 mps 755 mmHg 80%
05:00 +13°C° 0 mm 2 mps 755 mmHg 81%
06:00 +13°C° 0 mm 2 mps 756 mmHg 82%
07:00 +12°C° 0 mm 2 mps 756 mmHg 83%
08:00 +15°C° 0 mm 2 mps 756 mmHg 71%
09:00 +18°C° 0 mm 2 mps 756 mmHg 60%
10:00 +20°C° 0 mm 2 mps 756 mmHg 48%
11:00 +21°C° 0 mm 2 mps 755 mmHg 46%
12:00 +22°C° 0 mm 3 mps 755 mmHg 45%
13:00 +24°C° 0 mm 3 mps 754 mmHg 43%
14:00 +22°C° 0 mm 3 mps 754 mmHg 47%
15:00 +22°C° 0 mm 4 mps 754 mmHg 51%
16:00 +21°C° 0 mm 4 mps 754 mmHg 55%
17:00 +20°C° 0 mm 3 mps 754 mmHg 64%
18:00 +18°C° 0 mm 3 mps 754 mmHg 72%
19:00 +16°C° 0 mm 2 mps 755 mmHg 81%
20:00 +16°C° 0 mm 2 mps 755 mmHg 82%
21:00 +16°C° 0 mm 2 mps 755 mmHg 83%
22:00 +15°C° 0 mm 2 mps 756 mmHg 84%
23:00 +15°C° 0 mm 2 mps 755 mmHg 85%

19 July, Sunday

Time Temperature Precipitation Wind Pressure Humidity
00:00 +15°C° 0 mm 2 mps 755 mmHg 86%
01:00 +15°C° 0 mm 2 mps 755 mmHg 87%
02:00 +15°C° 0 mm 2 mps 755 mmHg 88%
03:00 +15°C° 0 mm 2 mps 755 mmHg 88%
04:00 +15°C° 0 mm 2 mps 755 mmHg 89%
05:00 +14°C° 0 mm 2 mps 755 mmHg 90%
06:00 +14°C° 0 mm 2 mps 755 mmHg 90%
07:00 +13°C° 0 mm 3 mps 756 mmHg 91%
08:00 +17°C° 0 mm 2 mps 756 mmHg 80%
09:00 +20°C° 0 mm 2 mps 756 mmHg 70%
10:00 +23°C° 0 mm 2 mps 756 mmHg 59%
11:00 +24°C° 0 mm 2 mps 756 mmHg 56%
12:00 +25°C° 0 mm 3 mps 755 mmHg 53%
13:00 +25°C° 0 mm 3 mps 754 mmHg 51%
14:00 +25°C° 0 mm 3 mps 754 mmHg 53%
15:00 +24°C° 0 mm 3 mps 753 mmHg 56%
16:00 +24°C° 0 mm 3 mps 753 mmHg 58%
17:00 +21°C° 0 mm 3 mps 754 mmHg 66%
18:00 +20°C° 0 mm 2 mps 754 mmHg 75%
19:00 +19°C° 0 mm 1 mps 754 mmHg 83%
20:00 +19°C° 0 mm 1 mps 755 mmHg 84%
21:00 +18°C° 0 mm 1 mps 755 mmHg 86%
22:00 +18°C° 0 mm 1 mps 756 mmHg 87%
23:00 +18°C° 0 mm 1 mps 755 mmHg 88%

20 July, Monday

Time Temperature Precipitation Wind Pressure Humidity
00:00 +18°C° 0 mm 1 mps 755 mmHg 89%
01:00 +18°C° 0 mm 1 mps 755 mmHg 89%
02:00 +18°C° 0.1 mm 1 mps 755 mmHg 90%
03:00 +17°C° 0.1 mm 2 mps 755 mmHg 90%
04:00 +17°C° 0.1 mm 2 mps 754 mmHg 90%
05:00 +17°C° 0 mm 2 mps 755 mmHg 89%
06:00 +17°C° 0 mm 2 mps 755 mmHg 88%
07:00 +18°C° 0 mm 2 mps 756 mmHg 87%
08:00 +19°C° 0 mm 3 mps 756 mmHg 82%
09:00 +20°C° 0 mm 3 mps 756 mmHg 77%
10:00 +21°C° 0 mm 3 mps 756 mmHg 72%
11:00 +22°C° 0 mm 3 mps 755 mmHg 67%
12:00 +25°C° 0 mm 3 mps 755 mmHg 61%
13:00 +26°C° 0 mm 4 mps 754 mmHg 56%
14:00 +26°C° 0 mm 4 mps 754 mmHg 58%
15:00 +25°C° 0 mm 4 mps 754 mmHg 60%
16:00 +25°C° 0 mm 4 mps 754 mmHg 62%
17:00 +23°C° 0 mm 4 mps 754 mmHg 67%
18:00 +22°C° 0 mm 4 mps 755 mmHg 71%
19:00 +21°C° 0 mm 4 mps 755 mmHg 76%
20:00 +21°C° 0.1 mm 3 mps 755 mmHg 77%
21:00 +21°C° 0.1 mm 3 mps 756 mmHg 78%
22:00 +21°C° 0.1 mm 3 mps 756 mmHg 80%
23:00 +20°C° 0.1 mm 3 mps 756 mmHg 81%

21 July, Tuesday

Time Temperature Precipitation Wind Pressure Humidity
00:00 +20°C° 0.1 mm 3 mps 755 mmHg 82%
01:00 +20°C° 0.1 mm 3 mps 755 mmHg 84%
02:00 +20°C° 0 mm 3 mps 755 mmHg 85%
03:00 +19°C° 0 mm 3 mps 754 mmHg 85%
04:00 +19°C° 0 mm 3 mps 754 mmHg 86%
05:00 +19°C° 0.1 mm 4 mps 754 mmHg 85%
06:00 +19°C° 0.1 mm 4 mps 755 mmHg 85%
07:00 +19°C° 0.1 mm 5 mps 755 mmHg 84%
08:00 +20°C° 0 mm 5 mps 755 mmHg 79%
09:00 +20°C° 0 mm 5 mps 756 mmHg 74%
10:00 +21°C° 0 mm 4 mps 756 mmHg 69%
11:00 +22°C° 0 mm 4 mps 755 mmHg 66%
12:00 +23°C° 0 mm 4 mps 755 mmHg 63%
13:00 +23°C° 0 mm 4 mps 755 mmHg 59%
14:00 +23°C° 0 mm 4 mps 754 mmHg 62%
15:00 +22°C° 0 mm 4 mps 754 mmHg 64%
16:00 +22°C° 0 mm 5 mps 754 mmHg 66%
17:00 +21°C° 0 mm 4 mps 754 mmHg 70%
18:00 +20°C° 0 mm 4 mps 755 mmHg 73%
19:00 +20°C° 0 mm 4 mps 755 mmHg 76%
20:00 +20°C° 0 mm 4 mps 755 mmHg 77%
21:00 +20°C° 0 mm 4 mps 755 mmHg 78%
22:00 +20°C° 0 mm 4 mps 755 mmHg 79%
23:00 +19°C° 0 mm 4 mps 755 mmHg 80%
Show more